www.pogodaiklimat.ru

Погода и климат >> Архив погоды >> Россия >> Якутия >> Батамай


ПОГОДА в Батамае

  • Прогноз погоды в Батамае
  • Монитор погоды в Батамае
  • Климат города

АРХИВ ПОГОДЫ в Батамае

Время (UTC), дата Ветер
(напр.,м/с)
 
Видим.   Явления Облачность Т
(С)
Тd
(С)
f
(%)
Тe
(С)
Тes
(С)
Комфортность P
(гПа)
Po
(гПа)
Тmin
(С)
Tmax
(С)
R
(мм)
R24
(мм)
S
(см)
18 19.06 ЮЗ 3 50 км 10/0
[Ac trans Ci fib]
+13.9 +8.1 68 +13 +13 1007.1 997.6
21 19.06 З 3 50 км 10/0
[Ac trans Ci fib]
+14.2 +6.3 59 +13 +14 1006.6 997.1
00 20.06 З 5 50 км 10/0
[Ac trans Ci fib]
+17.1 +7.8 54 +16 +19 1006.6 997.1 +13.9
03 20.06 ЮЗ 3 50 км 10/0
[Ac As]
+17.4 +7.0 50 +17 +21 1006.6 997.1
06 20.06 Ю 1 50 км 10/4 600 м
[Cb cap Ac As]
+19.5 +12.6 64 +22 +24 комфорт 1005.8 996.5
09 20.06 В 2 50 км 10/6 600 м
[Cb cap Ac trans]
+16.7 +9.9 64 +17 +18 1003.7 994.3
12 20.06 З 1 50 км 10/8 600 м
[Cb cap Ac trans]
+14.8 +9.4 70 +15 +15 1003.4 994.0 +19.9
15 20.06 З 4 50 км 5/0
[Ac trans Ci fib]
+16.3 +11.7 74 +16 +16 1001.6 992.2
18 20.06 З 2 50 км 4/0
[Ci fib]
+13.7 +11.0 84 +13 +13 1001.4 992.0
21 20.06 СЗ 2 50 км 3/0
[Ci fib]
+15.4 +9.6 68 +15 +17 1003.5 994.1
00 21.06 С 2 50 км 3/0
[Ci fib]
+19.4 +5.4 40 +21 +28 комфорт 1005.5 996.2 +12.9
03 21.06 С 2 50 км 9/0
[Cs]
+21.6 +4.8 33 +22 +33 комфорт 1005.8 996.5
06 21.06 С 1 50 км 9/0
[Cc]
+21.6 +7.8 41 +23 +32 комфорт 1005.2 995.9
09 21.06 ЮЗ 2 50 км 9/0
[Cc]
+20.2 +11.3 57 +23 +25 комфорт 1004.4 995.1
12 21.06 ЮЗ 1 50 км 3/0
[Ac trans]
+19.9 +11.4 58 +23 +23 комфорт 1004.4 995.1 +22.7
15 21.06 штиль 0 50 км 8/0
[Ac trans Ci fib]
+13.0 +10.9 87 +13 +13 1004.8 995.3
18 21.06 штиль 0 50 км 10/0
[Ac trans Cs]
+8.5 +7.4 93 +8 +8 1004.8 995.2
21 21.06 СВ 1 50 км 10/0
[Ci sp]
+11.7 +8.3 80 +12 +14 1004.4 994.9
00 22.06 С 1 50 км 10/3 600 м
[Cb cap Ac trans Ci fib]
+19.9 +11.2 57 +22 +26 комфорт 1003.9 994.7 +8.5
03 22.06 Ю 1 50 км 8/1 600 м
[Cb cap Ac trans Ci fib]
+23.7 +6.5 33 +24 +32 комфорт 1003.1 994.0
06 22.06 ЮВ 2 50 км 8/1 600 м
[Cb cap Ac trans Ci fib]
+27.6 +10.7 35 +28 +34 жарко 1001.7 992.8
09 22.06 Ю 1 50 км 10/0
[Ac trans Ci sp]
+24.9 +13.3 48 +27 +29 жарко 1001.2 992.1
12 22.06 В 1 50 км 10/0
[Ac trans Ci fib]
+22.9 +13.9 57 +26 +26 жарко 1001.2 992.1 +27.9
15 22.06 СВ 1 50 км 10/0
[Ac trans Cs]
+16.8 +14.2 85 +18 +18 1001.9 992.5
18 22.06 СВ 3 50 км 8/0
[Ac trans Ci fib]
+16.5 +11.5 72 +16 +16 1001.9 992.5
21 22.06 СВ 2 50 км 8/0
[Ac trans Ci fib]
+18.3 +10.3 60 +19 +21 1002.1 992.9
00 23.06 СВ 3 50 км 8/0
[Ac trans Ci fib]
+23.3 +12.1 49 +26 +31 жарко 1001.6 992.5 +16.5
03 23.06 В 2 50 км 3/0
[Ci fib]
+27.6 +14.7 45 +30 +42 жарко 1000.2 991.3
06 23.06 В 5 50 км 10/0
[Ac trans Cs]
+28.3 +13.3 40 +30 +34 жарко 999.4 990.5
09 23.06 ЮВ 4 20 км дым 10/3 600 м
[Cb cap Ac trans Cs]
+28.1 +14.8 44 +31 +31 душно 997.9 989.0
12 23.06 ЮВ 4 50 км мгла 10/6 600 м
[Cb cap Ac trans Cs]
+24.1 +14.3 54 +27 +27 жарко 996.5 987.4 +29.1
15 23.06 Ю 1 4000 м мгла 10/6 600 м
[Cb cap Ac trans Cs]
+17.0 +12.5 75 +18 +18 996.4 987.0
18 23.06 В 1 4000 м мгла 10/4 600 м
[Cb cap Ac trans Cs]
+16.8 +14.2 85 +18 +18 997.4 988.0
21 23.06 СВ 3 50 км 10/0
[Ci fib]
+19.3 +13.9 71 +21 +22 комфорт 999.5 990.3
00 24.06 СВ 3 50 км 10/1 600 м
[Cu hum Ci fib]
+20.9 +11.8 56 +23 +28 комфорт 1001.9 992.7 +15.0
03 24.06 В 2 50 км 10/3 600 м
[Cu hum Ac trans Ci fib]
+23.1 +12.4 51 +26 +30 жарко 1003.2 994.1
06 24.06 ЮЗ 1 50 км 10/3 600 м
[Cb cap Ac trans Cs]
+22.5 +15.3 64 +26 +30 жарко 1003.8 994.7
09 24.06 ЮЗ 3 50 км 10/5 600 м
[Cb cap Ac trans Cs]
+19.9 +13.6 67 +22 +23 комфорт 1004.9 995.6
12 24.06 ЮЗ 3 50 км 10/3 1000 м
[Sc Ac trans Ci fib]
+18.3 +14.7 80 +19 +19 1006.5 997.2 +23.5
15 24.06 С 1 50 км 10/3 1000 м
[Sc Ac As]
+13.1 +9.8 80 +13 +13 1008.2 998.7
18 24.06 С 1 50 км 8/3 1000 м
[Sc Ac trans]
+10.9 +8.2 83 +11 +11 1009.2 999.6
21 24.06 С 2 50 км 1/0
[Ac trans]
+14.7 +5.7 55 +15 +17 1009.7 1000.2
00 25.06 С 2 50 км ясно +19.1 +5.2 40 +20 +28 1010.1 1000.8 +10.0
03 25.06 СЗ 2 50 км ясно +22.7 +5.7 33 +23 +36 комфорт 1009.6 1000.5
06 25.06 ЮЗ 1 50 км 8/0
[Cs]
+22.1 +13.3 57 +25 +35 комфорт 1008.8 999.5
09 25.06 ЮЗ 2 50 км 6/0
[Ci fib]
+22.3 +14.1 60 +26 +29 жарко 1007.8 998.5
12 25.06 ЮЗ 1 50 км 3/0
[Ci fib]
+20.9 +13.8 64 +25 +25 комфорт 1008.4 999.1 +24.2
15 25.06 СЗ 1 50 км 1/0
[Ci fib]
+12.6 +10.5 87 +13 +13 1008.9 999.4
18 25.06 С 2 50 км 1/0
[Ci fib]
+7.5 +6.6 94 +5 +5 1009.3 999.7
21 25.06 С 1 20 км дым ясно +10.3 +7.8 84 +10 +13 1010.0 1000.4
00 26.06 В 1 20 км дым ясно +20.1 +7.7 45 +22 +32 комфорт 1009.7 1000.4 +7.2
03 26.06 Ю 3 50 км 4/0
[Ci fib]
+24.3 +5.4 30 +24 +34 комфорт 1008.7 999.6
06 26.06 ЮЗ 2 50 км 3/0
[Ci fib]
+26.0 +6.6 29 +26 +35 жарко 1006.7 997.6
09 26.06 ЮВ 1 50 км ясно +27.3 +4.2 23 +26 +30 жарко 1005.5 996.4
12 26.06 штиль 0 50 км ясно +22.6 +8.8 41 +24 +24 комфорт 1005.0 995.9 +27.8
15 26.06 СВ 2 50 км ясно +15.1 +6.0 54 +15 +15 1005.9 996.4

 

Местоположение метеостанции Батамай (Якутия, Россия): широта 63.52 долгота 129.40 высота над уровнем моря 79 м.

В архиве по умолчанию представлена погода в Батамае за последнюю неделю. Архивные данные за месяц целиком и за предыдущие месяцы, начиная с января 2011 года, Вы можете получить, выбрав интересующий диапазон дат из раскрывающегося списка и нажав кнопку "Ввод!".

Внимание! Время в таблицах - всемирное. Для получения местного времени необходимо прибавить поправку, которая в Батамае равна 9 ч.

Смотрите также архив погоды в соседних городах и на ближайших метеорологических станциях:

Погода в Сеген-Кюели (Якутия, Россия) (69 км)
Погода в Намцах (Якутия, Россия) (90 км)
Погода в Сангаре (Якутия, Россия) (109 км)
Погода в Верхоянском Перевозе (Якутия, Россия) (131 км)
Погода в Якутске (Якутия, Россия) (169 км)
Погода в Сого-Хае (Якутия, Россия) (169 км)
Погода в Бердигестяхе (Якутия, Россия) (185 км)
Погода в Себян-Кюеле (Якутия, Россия) (200 км)
Погода в Покровске (Якутия, Россия) (227 км)
Погода в Хатырык-Хомо (Якутия, Россия) (231 км)

Пояснения к столбцам:

Ветер - указаны скорость ветра в м/с - средняя за 10 мин, порывы в срок и между сроками (в фигурных скобках) и направление, откуда дует ветер: С - северный, СВ - северо-восточный, В - восточный, ЮВ - юго-восточный, Ю - южный, ЮЗ - юго-западный, З - западный, СЗ - северо-западный.
Видимость - горизонтальная дальность видимости в метрах или километрах. При видимости от 1 до 10 км при отсутствии осадков обычно наблюдается дымка, при ухудшении видимости до 1 км и менее - туман. В сухую погоду видимость может ухудшаться дымом, пылью или мглою.
Явления - указаны атмосферные явления, наблюдавшиеся в срок или в последний час перед сроком; фигурными скобками обозначены явления, наблюдавшиеся между сроками (за 1-3 часа до срока); квадратными скобками обозначены град или гололедные отложения с указанием их диаметра в мм.
Облачность - указаны через наклонную черту общая и нижняя облачность в баллах и высота нижней границы облаков в метрах; квадратными скобками обозначены формы облаков: Ci - перистые, Cs - перисто-слоистые, Cc - перисто-кучевые, Ac - высококучевые, As - высокослоистые, Sc - слоисто-кучевые, Ns - слоисто-дождевые, Cu - кучевые, Cb - кучево-дождевые. Подробнее классификацию облаков см. в Атласе облаков (PDF).
T - Температура воздуха - температура, измеренная на высоте 2 м над землей.
Td - Температура точки росы - температура, при понижении до которой содержащийся в воздухе водяной пар достигнет насыщения.
f - Относительная влажность воздуха - влажноcть воздуха, измеренная на высоте 2 м над землей.
Te - Эффективная температура - температура, которую ощущает одетый по сезону человек в тени. Характеристика душности погоды. При расчете учитывается влияние влажности воздуха и скорости ветра на теплоощущения человека.
Tes - Эффективная температура на солнце - температура, которую ощущает человек, с поправкой на солнечный нагрев. Характеристика знойности погоды. Зависит от высоты солнца над горизонтом, облачности и скорости ветра. Ночью, в пасмурную погоду, а также при ветре 12 м/с и более поправка равна нулю.
P - Атмосферное давление - приведенное к уровню моря атмосферное давление.
Po - Атмосферное давление - измеренное на уровне метеостанции атмосферное давление.
Tmin - Минимальная температура - минимум температуры воздуха на высоте 2 м над землей.
Tmax - Максимальная температура - максимум температуры воздуха на высоте 2 м над землей.
R - Количество осадков - Количество выпавших осадков за период времени, мм. При наведении курсора мыши на число - период времени, за который выпало указанное количество осадков.
R24 - Количество осадков - Количество выпавших осадков за 24 часа, мм.
S - Снежный покров - Высота снежного покрова, см. При наведении курсора мыши на число - состояние снежного покрова и степень покрытия местности в баллах.